Weather Roundup
Issued by NWS Chicago, IL

Home | Current Version | Previous Version | Graphics & Text | Print | Product List | Glossary On
Versions: 1 2 3 4 5 6 7 8 9 10 11 12 13 14 15 16 17 18 19 20 21 22 23 24 25 26 27 28 29 30 31 32 33 34 35 36 37 38 39 40 41 42 43 44 45 46 47 48 49 50
000
NZUS59 KLOT 302312
HRRLOT

CHICAGO AREA WEATHER ROUNDUP
NATIONAL WEATHER SERVICE CHICAGO/ROMEOVILLE IL
600 PM CDT SUN AUG 30 2015

NOTE: "FAIR" INDICATES FEW OR NO CLOUDS BELOW 12,000 FEET WITH NO
SIGNIFICANT WEATHER AND/OR OBSTRUCTIONS TO VISIBILITY.

* THESE STATIONS ARE NOT UNDER NWS QUALITY CONTROL. THEY ALSO MAY NOT
  REPORT WEATHER SUCH AS PRECIPITATION OR FOG.

ILZ005-006-012>014-019>023-310000-
NORTHEAST ILLINOIS

CITY           SKY/WX    TMP DP  RH WIND       PRES   REMARKS
OHARE          MOSUNNY   74  65  73 E5        30.02S
MIDWAY         MOSUNNY   75  64  68 E9        30.02S
AURORA         CLOUDY    77  64  64 CALM      30.03S
LANSING*       PTSUNNY   74  65  74 E6        30.02S
JOLIET*        SUNNY     79  65  62 CALM      30.02S HX  81
WAUKEGAN       MOSUNNY   67  63  87 E3        30.02F
DUPAGE AIRPORT SUNNY     75  63  66 CALM      30.02F
WHEELING       SUNNY     71  64  78 E6        30.03F
KANKAKEE*      MOSUNNY   79  68  69 NW3       30.03S HX  82
MORRIS*        SUNNY     77  66  68 CALM      30.01S
LEWIS AIRPORT* SUNNY     76  63  62 NW3       30.02S
NORTHERLY IS     N/A     69  64  84 NE6         N/A
$$

WIZ051-052-058>065-066-070>072-310000-
SOUTHEAST WISCONSIN

CITY           SKY/WX    TMP DP  RH WIND       PRES   REMARKS
MILWAUKEE      CLOUDY    68  62  81 SE6       30.02S
KENOSHA*       MOSUNNY   70  64  81 SE5       30.03S
RACINE*        SUNNY     68  62  81 S8        30.04F
BURLINGTON     MOSUNNY   71  62  73 SW6       30.03S
WAUKESHA       MOSUNNY   72  63  73 W7        30.04S
WEST BEND      SUNNY     70  61  73 SW5       30.02F
$$

INZ001>003-010>013-019-020-310000-
NORTHWEST INDIANA

CITY           SKY/WX    TMP DP  RH WIND       PRES   REMARKS
GARY*          MOSUNNY   73  64  73 VRB7      30.03F
MICHIGAN CITY* NOT AVBL
RENSSELAER*    NOT AVBL
VALPARAISO     PTSUNNY   76  68  76 NE3       30.03S
$$

LMZ740>746-310000-
SOUTHERN LAKE MICHIGAN

STATION/POSITION TIME  SKY/WX   TEMP WIND        PRES    VSBY
                                AIR  DIR/SP/G
                 (UTC)          (F)  (DEG/KT/KT) (MB)    (MI)
HARRISON CRIB    2200            68   30/  6/  7   N/A
BURNHAM HARBOR   2300            69   50/  5/  6   N/A
CALUMET HARBOR   NOT AVBL
BURNS HARBOR     2200            72   40/  8/  9 1017.3F
MICHIGAN CITY    2200            69   10/  7/  8   N/A
$$

ABBREVIATIONS USED IN REMARKS
   TC - TEMPERATURE IN CELSIUS
  WCI - WIND CHILL INDEX
   HX - HEAT INDEX
  VSB - VISIBILITY
$$



USA.gov is the U.S. government's official web portal to all federal, state and local government web resources and services.